Regional Weather Roundup
Issued by NWS

Home | Current Version | Previous Version | Graphics & Text | Print | Product List | Glossary On
Versions: 1 2 3 4 5 6 7 8 9 10 11 12 13 14 15 16 17 18 19 20 21 22 23 24 25 26 27 28 29 30 31 32 33 34 35 36 37 38 39 40 41 42 43 44 45 46 47 48 49 50
441
ASUS43 KBIS 241310
RWRND

NORTH DAKOTA REGIONAL WEATHER ROUNDUP
NATIONAL WEATHER SERVICE BISMARCK ND
800 AM CDT TUE MAY 24 2016

NOTE: "FAIR" INDICATES FEW OR NO CLOUDS BELOW 12,000 FEET WITH NO
SIGNIFICANT WEATHER AND/OR OBSTRUCTIONS TO VISIBILITY.


NDZ001>003-009>011-017-241400-
NORTHWEST NORTH DAKOTA

CITY           SKY/WX    TMP DP  RH WIND       PRES   REMARKS
WILLISTON      CLOUDY    50  43  77 SW6       29.86R
MINOT          SUNNY     60  44  55 CALM      29.84R
$$

NDZ018>021-031>035-040>046-241400-
SOUTHWEST NORTH DAKOTA

CITY           SKY/WX    TMP DP  RH WIND       PRES   REMARKS
BISMARCK       SUNNY     54  44  69 W6        29.86R
DICKINSON      MOSUNNY   48  40  73 W8        29.86R
GARRISON         N/A     54  44  69 NW6       29.86R
HETTINGER ARPT SUNNY     47  42  83 CALM      29.89R
$$

NDZ004>008-012>016-024-026-027-054-241400-
NORTHEAST NORTH DAKOTA

CITY           SKY/WX    TMP DP  RH WIND       PRES   REMARKS
GRAND FORKS    CLOUDY    60  54  80 CALM      29.79R
DEVILS LAKE    SUNNY     61  48  62 CALM      29.83S
$$

NDZ022-023-025-028>030-036>039-047>053-241400-
SOUTHEAST NORTH DAKOTA

CITY           SKY/WX    TMP DP  RH WIND       PRES   REMARKS
FARGO          CLOUDY    63  49  60 E12       29.80R
JAMESTOWN      SUNNY     59  51  75 CALM      29.81R
$$





USA.gov is the U.S. government's official web portal to all federal, state and local government web resources and services.